TimeCST,TemperatureF,Dew PointF,Humidity,Sea Level PressureIn,VisibilityMPH,Wind Direction,Wind SpeedMPH,Gust SpeedMPH,PrecipitationIn,Events,Conditions,WindDirDegrees,DateUTC
12:15 AM,42.8,32.0,66,29.75,10.0,NW,5.8,-,N/A,,Clear,310,2012-11-08 06:15:00
12:35 AM,41.0,32.0,70,29.76,10.0,NW,6.9,-,N/A,,Clear,310,2012-11-08 06:35:00
1:15 AM,46.4,35.6,66,29.78,10.0,NNW,10.4,-,N/A,,Clear,330,2012-11-08 07:15:00
1:55 AM,42.8,35.6,76,29.80,10.0,NW,6.9,-,N/A,,Clear,310,2012-11-08 07:55:00
2:15 AM,42.8,35.6,76,29.81,10.0,NW,10.4,16.1,N/A,,Clear,310,2012-11-08 08:15:00
2:35 AM,44.6,37.4,76,29.81,10.0,NW,10.4,-,N/A,,Clear,320,2012-11-08 08:35:00
2:55 AM,44.6,37.4,76,29.82,10.0,NW,10.4,-,N/A,,Clear,320,2012-11-08 08:55:00
3:15 AM,44.6,37.4,76,29.83,10.0,NW,8.1,-,N/A,,Clear,320,2012-11-08 09:15:00
3:35 AM,41.0,37.4,87,29.85,10.0,WNW,9.2,-,N/A,,Scattered Clouds,300,2012-11-08 09:35:00
3:55 AM,44.6,39.2,81,29.85,10.0,WNW,8.1,-,N/A,,Mostly Cloudy,300,2012-11-08 09:55:00
4:15 AM,44.6,39.2,81,29.86,10.0,NW,12.7,17.3,N/A,,Overcast,310,2012-11-08 10:15:00
4:35 AM,44.6,41.0,87,29.86,10.0,NNW,21.9,25.3,N/A,,Overcast,330,2012-11-08 10:35:00
4:55 AM,44.6,41.0,87,29.87,10.0,NNW,15.0,24.2,N/A,,Overcast,330,2012-11-08 10:55:00
5:15 AM,41.0,37.4,87,29.88,10.0,NNW,23.0,29.9,N/A,,Overcast,330,2012-11-08 11:15:00
5:35 AM,41.0,37.4,87,29.90,10.0,NNW,24.2,32.2,N/A,,Overcast,330,2012-11-08 11:35:00
5:55 AM,41.0,37.4,87,29.91,10.0,NNW,24.2,34.5,N/A,,Overcast,330,2012-11-08 11:55:00
6:15 AM,39.2,37.4,93,29.92,10.0,NNW,25.3,35.7,N/A,,Overcast,340,2012-11-08 12:15:00
6:55 AM,37.4,35.6,93,29.94,10.0,NNW,25.3,32.2,N/A,,Overcast,330,2012-11-08 12:55:00
7:15 AM,37.4,33.8,87,29.96,10.0,NNW,21.9,27.6,N/A,,Overcast,330,2012-11-08 13:15:00
7:35 AM,37.4,33.8,87,29.97,10.0,NNW,24.2,29.9,N/A,,Overcast,330,2012-11-08 13:35:00
7:55 AM,37.4,33.8,87,29.99,10.0,NNW,19.6,27.6,N/A,,Overcast,340,2012-11-08 13:55:00
8:15 AM,37.4,33.8,87,30.00,10.0,NNW,26.5,32.2,N/A,,Overcast,340,2012-11-08 14:15:00
8:35 AM,37.4,33.8,87,30.02,10.0,NNW,18.4,33.4,N/A,,Overcast,340,2012-11-08 14:35:00
8:55 AM,35.6,32.0,87,30.03,10.0,NNW,18.4,25.3,N/A,,Overcast,330,2012-11-08 14:55:00
9:15 AM,35.6,32.0,87,30.04,10.0,North,16.1,24.2,N/A,,Overcast,360,2012-11-08 15:15:00
9:35 AM,35.6,32.0,87,30.04,10.0,North,16.1,24.2,N/A,,Overcast,350,2012-11-08 15:35:00
9:55 AM,35.6,32.0,87,30.04,10.0,NNW,20.7,26.5,N/A,,Overcast,340,2012-11-08 15:55:00
10:15 AM,35.6,32.0,87,30.05,10.0,NNW,20.7,26.5,N/A,,Overcast,340,2012-11-08 16:15:00
10:35 AM,35.6,32.0,87,30.07,10.0,NNW,19.6,25.3,N/A,,Overcast,340,2012-11-08 16:35:00
10:55 AM,35.6,32.0,87,30.07,10.0,North,16.1,-,N/A,,Overcast,350,2012-11-08 16:55:00
11:15 AM,35.6,32.0,87,30.07,10.0,North,15.0,-,N/A,,Overcast,360,2012-11-08 17:15:00
11:35 AM,35.6,32.0,87,30.07,10.0,North,17.3,21.9,N/A,,Overcast,360,2012-11-08 17:35:00
11:55 AM,37.4,32.0,81,30.07,10.0,North,17.3,-,N/A,,Overcast,10,2012-11-08 17:55:00
12:15 PM,35.6,32.0,87,30.07,10.0,North,16.1,-,N/A,,Overcast,10,2012-11-08 18:15:00
12:35 PM,35.6,32.0,87,30.07,10.0,NNE,11.5,-,N/A,,Overcast,20,2012-11-08 18:35:00
12:55 PM,37.4,32.0,81,30.08,10.0,NNE,10.4,-,N/A,,Overcast,30,2012-11-08 18:55:00
1:15 PM,37.4,32.0,81,30.07,10.0,NNE,9.2,-,N/A,,Overcast,30,2012-11-08 19:15:00
1:35 PM,37.4,32.0,81,30.07,10.0,NNE,10.4,-,N/A,,Overcast,20,2012-11-08 19:35:00
1:55 PM,37.4,32.0,81,30.07,10.0,NNE,11.5,17.3,N/A,,Overcast,30,2012-11-08 19:55:00
2:15 PM,37.4,32.0,81,30.07,10.0,NNE,11.5,-,N/A,,Overcast,20,2012-11-08 20:15:00
2:35 PM,37.4,32.0,81,30.07,10.0,NNE,16.1,-,N/A,,Overcast,30,2012-11-08 20:35:00
2:55 PM,37.4,32.0,81,30.07,10.0,NNE,12.7,-,N/A,,Overcast,20,2012-11-08 20:55:00
3:15 PM,37.4,32.0,81,30.08,10.0,NNE,10.4,-,N/A,,Overcast,20,2012-11-08 21:15:00
3:35 PM,37.4,32.0,81,30.08,10.0,NNE,12.7,17.3,N/A,,Overcast,20,2012-11-08 21:35:00
3:55 PM,37.4,32.0,81,30.07,10.0,NE,15.0,-,N/A,,Overcast,50,2012-11-08 21:55:00
4:15 PM,35.6,32.0,87,30.07,10.0,NE,12.7,20.7,N/A,,Overcast,50,2012-11-08 22:15:00
4:35 PM,35.6,32.0,87,30.07,10.0,NE,16.1,-,N/A,,Overcast,50,2012-11-08 22:35:00
4:55 PM,35.6,32.0,87,30.07,10.0,NE,10.4,-,N/A,,Overcast,50,2012-11-08 22:55:00
5:15 PM,35.6,32.0,87,30.07,10.0,NE,13.8,-,N/A,,Overcast,50,2012-11-08 23:15:00
5:35 PM,35.6,32.0,87,30.08,10.0,NE,12.7,17.3,N/A,,Overcast,50,2012-11-08 23:35:00
5:55 PM,35.6,32.0,87,30.08,10.0,NE,15.0,19.6,N/A,,Overcast,50,2012-11-08 23:55:00
6:15 PM,35.6,32.0,87,30.08,10.0,ENE,13.8,18.4,N/A,,Overcast,60,2012-11-09 00:15:00
6:35 PM,33.8,32.0,93,30.08,10.0,ENE,15.0,23.0,N/A,,Overcast,60,2012-11-09 00:35:00
6:55 PM,33.8,30.2,87,30.09,10.0,ENE,15.0,21.9,N/A,,Overcast,70,2012-11-09 00:55:00
7:15 PM,32.0,30.2,93,30.10,10.0,ENE,16.1,-,N/A,,Overcast,70,2012-11-09 01:15:00
7:35 PM,32.0,28.4,87,30.10,10.0,ENE,13.8,-,N/A,,Overcast,70,2012-11-09 01:35:00
7:55 PM,32.0,30.2,93,30.10,10.0,ENE,15.0,-,N/A,,Overcast,70,2012-11-09 01:55:00
8:15 PM,32.0,30.2,93,30.09,10.0,ENE,16.1,-,N/A,,Overcast,70,2012-11-09 02:15:00
8:35 PM,32.0,30.2,93,30.09,10.0,ENE,13.8,18.4,N/A,,Overcast,70,2012-11-09 02:35:00
8:55 PM,32.0,32.0,100,30.09,10.0,ENE,12.7,18.4,N/A,,Overcast,70,2012-11-09 02:55:00
9:15 PM,32.0,30.2,93,30.10,10.0,ENE,17.3,20.7,N/A,,Overcast,70,2012-11-09 03:15:00
9:35 PM,32.0,28.4,87,30.11,10.0,ENE,13.8,20.7,N/A,,Overcast,70,2012-11-09 03:35:00
9:55 PM,32.0,28.4,87,30.12,10.0,East,10.4,-,N/A,,Overcast,80,2012-11-09 03:55:00
10:15 PM,32.0,32.0,100,30.12,9.0,ENE,11.5,17.3,N/A,Rain,Light Rain,70,2012-11-09 04:15:00
10:35 PM,32.0,32.0,100,30.12,10.0,ENE,13.8,19.6,N/A,,Overcast,60,2012-11-09 04:35:00
10:55 PM,30.2,30.2,100,30.12,10.0,ENE,15.0,19.6,N/A,,Overcast,60,2012-11-09 04:55:00
11:15 PM,30.2,30.2,100,30.12,10.0,NE,17.3,21.9,N/A,,Overcast,50,2012-11-09 05:15:00
11:35 PM,28.4,28.4,100,30.12,10.0,ENE,17.3,23.0,N/A,,Overcast,60,2012-11-09 05:35:00
11:55 PM,28.4,28.4,100,30.12,9.0,ENE,18.4,24.2,N/A,,Overcast,70,2012-11-09 05:55:00